Weather History for Franklin, PA

Change the Weather History Date:

Wednesday, May 1, 2013

  Actual Average Record
Temperature  
Mean Temperature 63 °F -  
Max Temperature 75 °F 66 °F 88 °F (1942)
Min Temperature 51 °F 39 °F 27 °F (1978)
Degree Days  
Heating Degree Days 2    
Growing Degree Days 13 (Base 50)    
Moisture  
Dew Point 44 °F    
Average Humidity 55    
Maximum Humidity 82    
Minimum Humidity 31    
Precipitation  
Precipitation 0.00 in - - ()
Sea Level Pressure  
Sea Level Pressure 30.30 in    
Wind  
Wind Speed 10 mph (SE)    
Max Wind Speed 15 mph    
Max Gust Speed 20 mph    
Visibility 10 miles    
Events      
Averages and records for this station are not official NWS values.
T = Trace of Precipitation, MM = Missing Value Source: NWS Daily Summary

Daily Weather History Graph

Daily Weather History Graph

Search for Another Location

Airport:

Trip Planner

Search our weather history database for the weather conditions in past years. The results will help you decide how hot, cold, wet, or windy it might be!

Date:

Astronomy

May. 01, 2013 Rise Set
Actual Time 6:16 AM EDT 8:17 PM EDT
Civil Twilight 5:46 AM EDT 8:47 PM EDT
Nautical Twilight 5:09 AM EDT 9:24 PM EDT
Astronomical Twilight 4:29 AM EDT 10:04 PM EDT
Moon 1:25 AM EDT (5/1) 11:52 AM EDT (5/1)
Length of Visible Light 15h 01m
Length of Day
14h 00m
Waning Gibbous, 59% of the Moon is Illuminated
May 1
Waning Gibbous
May 2
Last Quarter
May 9
New
May 18
First Quarter
May 25
Full

Hourly Weather History & Observations

Time (EDT) Temp. Dew Point Humidity Pressure Visibility Wind Dir Wind Speed Gust Speed Precip Events Conditions
12:15 AM 55.4 °F 48.2 °F 77% 30.23 in 10.0 mi SE 9.2 mph - N/A   Clear
12:35 AM 53.6 °F 48.2 °F 82% 30.23 in 10.0 mi ESE 9.2 mph - N/A   Clear
12:55 AM 53.6 °F 48.2 °F 82% 30.23 in 10.0 mi ESE 11.5 mph - N/A   Clear
1:15 AM 53.6 °F 48.2 °F 82% 30.23 in 10.0 mi ESE 10.4 mph - N/A   Clear
1:35 AM 53.6 °F 48.2 °F 82% 30.23 in 10.0 mi ESE 9.2 mph - N/A   Clear
1:55 AM 53.6 °F 48.2 °F 82% 30.23 in 10.0 mi SE 10.4 mph - N/A   Clear
2:15 AM 53.6 °F 48.2 °F 82% 30.22 in 10.0 mi SE 11.5 mph 17.3 mph N/A   Clear
2:35 AM 53.6 °F 48.2 °F 82% 30.22 in 10.0 mi ESE 9.2 mph - N/A   Clear
3:15 AM 53.6 °F 48.2 °F 82% 30.23 in 10.0 mi ESE 9.2 mph - N/A   Clear
3:35 AM 53.6 °F 48.2 °F 82% 30.23 in 10.0 mi SE 10.4 mph 16.1 mph N/A   Clear
3:55 AM 53.6 °F 48.2 °F 82% 30.24 in 10.0 mi SE 10.4 mph - N/A   Partly Cloudy
4:15 AM 53.6 °F 48.2 °F 82% 30.24 in 10.0 mi ESE 11.5 mph 16.1 mph N/A   Clear
4:35 AM 53.6 °F 48.2 °F 82% 30.25 in 10.0 mi ESE 8.1 mph - N/A   Scattered Clouds
4:55 AM 53.6 °F 48.2 °F 82% 30.25 in 10.0 mi ESE 9.2 mph - N/A   Partly Cloudy
5:15 AM 53.6 °F 46.4 °F 77% 30.26 in 10.0 mi ESE 8.1 mph - N/A   Clear
5:35 AM 53.6 °F 46.4 °F 77% 30.27 in 10.0 mi ESE 10.4 mph - N/A   Clear
5:55 AM 53.6 °F 46.4 °F 77% 30.27 in 10.0 mi ESE 11.5 mph - N/A   Clear
6:15 AM 51.8 °F 46.4 °F 82% 30.28 in 10.0 mi ESE 8.1 mph - N/A   Clear
6:35 AM 51.8 °F 46.4 °F 82% 30.29 in 10.0 mi ESE 10.4 mph - N/A   Clear
6:55 AM 51.8 °F 44.6 °F 76% 30.30 in 10.0 mi ESE 9.2 mph - N/A   Clear
7:15 AM 53.6 °F 44.6 °F 72% 30.30 in 10.0 mi ESE 10.4 mph - N/A   Clear
7:35 AM 53.6 °F 44.6 °F 72% 30.31 in 10.0 mi ESE 10.4 mph - N/A   Clear
8:15 AM 55.4 °F 42.8 °F 63% 30.32 in 10.0 mi SE 9.2 mph - N/A   Clear
8:35 AM 55.4 °F 41.0 °F 58% 30.32 in 10.0 mi ESE 12.7 mph 19.6 mph N/A   Clear
9:15 AM 57.2 °F 42.8 °F 59% 30.32 in 10.0 mi ESE 12.7 mph - N/A   Clear
9:35 AM 59.0 °F 42.8 °F 55% 30.33 in 10.0 mi SE 10.4 mph - N/A   Clear
9:55 AM 60.8 °F 42.8 °F 52% 30.33 in 10.0 mi SE 10.4 mph - N/A   Clear
10:15 AM 60.8 °F 42.8 °F 52% 30.33 in 10.0 mi ESE 10.4 mph - N/A   Clear
10:35 AM 62.6 °F 44.6 °F 52% 30.34 in 10.0 mi SSE 8.1 mph - N/A   Clear
10:55 AM 62.6 °F 44.6 °F 52% 30.34 in 10.0 mi SE 9.2 mph - N/A   Clear
11:15 AM 64.4 °F 44.6 °F 49% 30.33 in 10.0 mi SSE 8.1 mph - N/A   Clear
11:35 AM 66.2 °F 44.6 °F 46% 30.33 in 10.0 mi SSE 10.4 mph - N/A   Clear
12:15 PM 68.0 °F 46.4 °F 46% 30.33 in 10.0 mi SE 12.7 mph - N/A   Clear
12:35 PM 69.8 °F 46.4 °F 43% 30.33 in 10.0 mi SE 13.8 mph 17.3 mph N/A   Clear
12:55 PM 69.8 °F 46.4 °F 43% 30.32 in 10.0 mi SE 8.1 mph - N/A   Clear
1:15 PM 69.8 °F 46.4 °F 43% 30.32 in 10.0 mi ESE 15.0 mph 19.6 mph N/A   Clear
1:35 PM 69.8 °F 48.2 °F 46% 30.32 in 10.0 mi SE 10.4 mph 19.6 mph N/A   Clear
2:15 PM 71.6 °F 48.2 °F 43% 30.31 in 10.0 mi ESE 13.8 mph 19.6 mph N/A   Clear
2:35 PM 71.6 °F 46.4 °F 41% 30.31 in 10.0 mi East 13.8 mph 17.3 mph N/A   Clear
2:55 PM 73.4 °F 48.2 °F 41% 30.31 in 10.0 mi ESE 11.5 mph - N/A   Clear
3:15 PM 73.4 °F 48.2 °F 41% 30.31 in 10.0 mi South 9.2 mph - N/A   Clear
3:35 PM 73.4 °F 48.2 °F 41% 30.31 in 10.0 mi SSE 9.2 mph 17.3 mph N/A   Clear
4:15 PM 73.4 °F 46.4 °F 38% 30.30 in 10.0 mi SE 12.7 mph 16.1 mph N/A   Clear
4:35 PM 73.4 °F 46.4 °F 38% 30.30 in 10.0 mi ESE 9.2 mph 16.1 mph N/A   Clear
4:55 PM 75.2 °F 46.4 °F 36% 30.30 in 10.0 mi ESE 9.2 mph 16.1 mph N/A   Clear
5:15 PM 75.2 °F 44.6 °F 34% 30.30 in 10.0 mi SE 12.7 mph 18.4 mph N/A   Clear
5:35 PM 73.4 °F 44.6 °F 36% 30.31 in 10.0 mi SE 10.4 mph - N/A   Clear
5:55 PM 73.4 °F 42.8 °F 33% 30.31 in 10.0 mi ESE 9.2 mph - N/A   Clear
6:15 PM 73.4 °F 42.8 °F 33% 30.31 in 10.0 mi SSE 10.4 mph - N/A   Clear
6:35 PM 73.4 °F 42.8 °F 33% 30.31 in 10.0 mi SE 9.2 mph - N/A   Clear
6:55 PM 71.6 °F 42.8 °F 35% 30.31 in 10.0 mi SE 9.2 mph - N/A   Clear
7:15 PM 71.6 °F 42.8 °F 35% 30.31 in 10.0 mi ESE 11.5 mph - N/A   Clear
7:35 PM 69.8 °F 41.0 °F 35% 30.31 in 10.0 mi ESE 10.4 mph - N/A   Clear
7:55 PM 69.8 °F 39.2 °F 33% 30.32 in 10.0 mi ESE 9.2 mph - N/A   Clear
8:15 PM 66.2 °F 39.2 °F 37% 30.32 in 10.0 mi ESE 9.2 mph - N/A   Clear
8:35 PM 66.2 °F 37.4 °F 35% 30.33 in 10.0 mi ESE 6.9 mph - N/A   Clear
8:55 PM 64.4 °F 37.4 °F 37% 30.34 in 10.0 mi ESE 6.9 mph - N/A   Clear
9:35 PM 62.6 °F 37.4 °F 39% 30.34 in 10.0 mi ESE 8.1 mph - N/A   Clear
9:55 PM 62.6 °F 35.6 °F 37% 30.34 in 10.0 mi ESE 9.2 mph - N/A   Clear
10:35 PM 62.6 °F 33.8 °F 34% 30.35 in 10.0 mi SE 10.4 mph - N/A   Clear
10:55 PM 62.6 °F 33.8 °F 34% 30.34 in 10.0 mi SE 11.5 mph - N/A   Clear
11:15 PM 60.8 °F 33.8 °F 36% 30.34 in 10.0 mi ESE 11.5 mph - N/A   Clear
11:35 PM 60.8 °F 30.2 °F 31% 30.33 in 10.0 mi SE 15.0 mph - N/A   Clear
11:55 PM 60.8 °F 30.2 °F 31% 30.33 in 10.0 mi SE 11.5 mph - N/A   Clear